Location: Góry Miechowskie
(50.3599°N, 20.1803°E)
Time: 03:13:05
(UTC+00:00)

SL-12 R/B(2) - Pass Details

Date: 15 June 2024
Orbit: 1193 x 2156 km, 63.4° (Epoch: 22 July)

Event Time Altitude Azimuth Distance (km) Brightness Sun altitude
Exits shadow 00:09:30 14° 225° (SW) 3,079 5.5 -13.7°
Maximum altitude 00:16:52 85° 313° (NW) 1,522 4.5 -13.3°
Drops below altitude 10° 00:27:01 10° 44° (NE) 4,085 8.0 -12.6°
Sets 00:30:30 0° 46° (NE) 5,211 8.8 -12.4°
